Regional Weather Roundup
Issued by NWS Upton, NY

Current Version | Previous Version | Graphics & Text | Print | Product List | Glossary Off
Versions: 1 2 3 4 5 6 7 8 9 10 11 12 13 14 15 16 17 18 19 20 21 22 23 24 25 26 27 28 29 30 31 32 33 34 35 36 37 38 39 40 41 42 43 44 45 46 47 48 49 50
000 ASUS41 KOKX 172005 RWROKX REGIONAL WEATHER ROUNDUP NATIONAL WEATHER SERVICE NEW YORK NY 300 PM EST WED DEC 17 2014 NOTE: "FAIR" INDICATES FEW OR NO CLOUDS BELOW 12,000 FEET WITH NO SIGNIFICANT WEATHER AND/OR OBSTRUCTIONS TO VISIBILITY. NYZ071-072-176-178-NJZ106-104-172100- NEW YORK CITY METRO AREA CITY SKY/WX TMP DP RH WIND PRES REMARKS CENTRAL PARK CLOUDY 51 35 54 W9G17 29.83R LAGUARDIA APRT CLOUDY 51 36 56 W14 29.81R KENNEDY INTL PTSUNNY 53 36 52 W15 29.82R NEWARK/LIBERTY CLOUDY 51 37 58 W12 29.82R BRNX BOT. GARD N/A 50 36 57 SW8 29.81S TETERBORO CLOUDY 51 37 58 W12G18 29.81R $$ NYZ177-179-078>081-172100- LONG ISLAND NEW YORK CITY SKY/WX TMP DP RH WIND PRES REMARKS FARMINGDALE CLOUDY 52 37 56 W12G18 29.80R ISLIP CLOUDY 51 39 63 W12 29.78R SHIRLEY CLOUDY 51 39 63 NW14 29.79R WESTHAMPTON CLOUDY 52 39 61 NW13 29.79R MONTAUK POINT N/A 49 42 77 W10 29.76R $$ NYZ052-065-067-172100- HUDSON VALLEY CITY SKY/WX TMP DP RH WIND PRES REMARKS WHITE PLAINS PTSUNNY 49 36 61 W13 29.78R NEWBURGH PTSUNNY 46 37 71 NW14G23 29.81R MONTGOMERY CLOUDY 47 35 63 NW13G24 29.80R POUGHKEEPSIE CLOUDY 50 37 61 W13G22 29.79R ALBANY CLOUDY 41 37 86 W6 29.80R $$ NJZ001-105-106-008-010-013-015-019>022-104-172100- NEW JERSEY CITY SKY/WX TMP DP RH WIND PRES REMARKS NEWARK/LIBERTY CLOUDY 51 37 58 W12 29.82R TETERBORO CLOUDY 51 37 58 W12G18 29.81R CALDWELL CLOUDY 50 36 58 W10G17 29.83R MORRISTOWN CLOUDY 52 39 62 NW14G25 29.84R SOMERVILLE CLOUDY 50 35 56 W8 29.83R SUSSEX CLOUDY 47 36 65 NW6 29.83R ANDOVER N/A 46 35 65 VRB3 29.84R TRENTON CLOUDY 50 33 52 W15G21 29.86R MILLVILLE CLOUDY 51 38 60 W10 29.90R ATLANTIC CITY CLOUDY 51 35 54 W20G29 29.88R WRIGHTSTOWN CLOUDY 51 36 57 W17G24 29.84R TOMS RIVER CLOUDY 52 36 54 NW15G24 29.86R BELMAR CLOUDY 52 36 54 W10G21 29.84R $$ PAZ047>061-062-071-172100- EASTERN PENNSYLVANIA CITY SKY/WX TMP DP RH WIND PRES REMARKS PHILADELPHIA CLOUDY 51 34 52 W21G30 29.91R ALLENTOWN CLOUDY 47 33 58 W9G26 29.88R SCRANTON LGT RAIN 43 37 79 W10 29.86R $$ CTZ002-004>006-009-010-012-RIZ004-006-007-MAZ004-011-015-172100- SOUTHERN NEW ENGLAND IN CT CITY SKY/WX TMP DP RH WIND PRES REMARKS BRADLEY INTL CLOUDY 49 38 65 NW14 29.75R HARTFORD CLOUDY 49 39 68 VRB7 29.77R DANBURY CLOUDY 48 36 63 W8 29.79R WTRBRY/OXFORD CLOUDY 46 37 71 NW6 29.76S BRIDGEPORT CLOUDY 52 39 61 W12 29.78R MERIDEN CLOUDY 49 39 68 W5 29.77R NEW HAVEN CLOUDY 52 40 63 NW7 29.77S CHESTER CLOUDY 48 39 71 NW8 29.76R GROTON CLOUDY 50 40 68 NW9 29.74R WILLIMANTIC CLOUDY 50 40 68 W5 29.74S IN RI CITY SKY/WX TMP DP RH WIND PRES REMARKS PROVIDENCE PTSUNNY 50 39 66 NW16G25 29.72R BLOCK ISLAND PTSUNNY 48 41 76 W13 29.74R WESTERLY CLOUDY 51 40 65 VRB5G17 29.74R IN MA CITY SKY/WX TMP DP RH WIND PRES REMARKS BOSTON MOCLDY 47 42 83 NW8 29.70R WORCESTER PTSUNNY 43 39 86 NW16 29.70F WESTFIELD CLOUDY 48 38 68 NW7G17 29.75S PROVINCETOWN CLOUDY 45 41 87 NW17G26 29.67S NANTUCKET CLOUDY 46 42 86 W17G25 29.69R $$ ANZ330-335-338-340-345-350-353-355-172100- COASTAL MARINE OBSERVATIONS STATION/POSITION TIME SKY/WX TEMP WIND PRES VSBY WAVE AIR SEA DIR/SP/G HT/PER (UTC) (F) (DEG/KT/KT) (MB) (MI) (FT/S) NY HARB ENTRANCE 2000 49 46 280/ 16/ 19 1009.9 3/ 4 4S FIRE IS 2000 46 N/A 3/ 5 20S FIRE ISLAND 1900 52 50 1009.2 4/ 4 23SW MTP 2000 N/A 3/ 5 HUDSON CANYON 2000 52 56 290/ 19/ 23 1009.3 6/ 6 EXECUTION ROCKS 2000 50 42 280/ 16/ 21 N/A WESTERN LI SOUND 2000 50 290/ 10/ 14 N/A 0 CENTRAL LI SOUND 1900 47 45 270/ 12/ 16 N/A 1/ 3 EASTERN LI SOUND NOT AVBL ROBBINS REEF 2000 51 280/ 14/ 20 1008.4 $$ >>>>>>>>>>>>>>>>>>>>>>>>>>>> KEY <<<<<<<<<<<<<<<<<<<<<<<<<<< > < > SKY/WX - SKY CONDITION/PRESENT WEATHER < > TMP - TEMPERATURE IN FAHRENHEIT < > DP - DEWPOINT IN FAHRENHEIT < > RH - RELATIVE HUMIDITY IN PERCENT < > WIND - DIRECTION AND SPEED IN MPH < > PRES - MEAN SEA LEVEL PRESSURE IN INCHES OF HG < > WCI - WIND CHILL INDEX < > VSB - VISIBILITY IN MILES < > HX - HEAT INDEX < > TC - TEMPERATURE IN CELSIUS < > VRB - VARIABLE WIND DIRECTION < > < >>>>>>>>>>>>>>>>>>>>>>>>>>>> KEY <<<<<<<<<<<<<<<<<<<<<<<<<<<

USA.gov is the U.S. government's official web portal to all federal, state and local government web resources and services.